This is the latest recevied weather packets stored in our database for station/object PACCTY. If no packets are shown the sender has not sent any weather packets the latest 10 day(s).
| Time | Temp. | Humidity | Pressure | Rain* | Wind** | Luminosity | Snow |
|---|---|---|---|---|---|---|---|
| 1777450207 | 6.11° C | 94% | 1023.5 hPa | 0 mm | - | - | - |
| 1777449607 | 6.11° C | 94% | 1023.5 hPa | 0 mm | - | - | - |
| 1777448407 | 6.67° C | 93% | 1023.6 hPa | 0 mm | - | - | - |
| 1777447207 | 6.67° C | 92% | 1023.4 hPa | 0 mm | - | - | - |
| 1777446609 | 6.67° C | 92% | 1023.4 hPa | 0 mm | - | - | - |
| 1777446307 | 7.22° C | 91% | 1023.4 hPa | 0 mm | - | - | - |
| 1777445710 | 7.22° C | 91% | 1023.3 hPa | 0 mm | - | - | - |
| 1777443908 | 7.78° C | 89% | 1023.2 hPa | 0 mm | - | - | - |
| 1777443007 | 7.78° C | 88% | 1023.1 hPa | 0 mm | - | - | - |
| 1777442706 | 7.78° C | 88% | 1023.2 hPa | 0 mm | - | - | - |
| 1777442107 | 8.33° C | 87% | 1023 hPa | 0 mm | - | - | - |
| 1777441806 | 8.33° C | 87% | 1023.1 hPa | 0 mm | - | - | - |
| 1777441207 | 8.33° C | 86% | 1023 hPa | 0 mm | - | - | - |
| 1777440607 | 8.89° C | 86% | 1023 hPa | 0 mm | - | - | - |
| 1777440308 | 8.89° C | 86% | 1023 hPa | 0 mm | - | - | - |
| 1777438507 | 8.89° C | 85% | 1022.8 hPa | 0 mm | - | - | - |
| 1777437007 | 9.44° C | 83% | 1022.9 hPa | 0 mm | - | - | - |
| 1777433708 | 10° C | 82% | 1022.4 hPa | 0 mm | - | - | - |
| 1777432506 | 10° C | 80% | 1022.2 hPa | 0 mm | - | - | - |
| 1777428607 | 11.67° C | 78% | 1022 hPa | 0 mm | - | - | - |
| 1777427106 | 12.22° C | 74% | 1022.2 hPa | 0 mm | - | - | - |
| 1777416007 | 13.89° C | 72% | 1022.5 hPa | 0 mm | - | - | - |
| 1777414507 | 13.89° C | 72% | 1022.6 hPa | 0 mm | - | - | - |
| 1777410906 | 14.44° C | 74% | 1022.9 hPa | 0 mm | - | - | - |
| 1777407906 | 13.33° C | 74% | 1023 hPa | 0 mm | - | - | - |
* Rain latest hour (hover to see other rain measurements)
** Current wind speed in m/s (hover to see current wind gust speed)